Location: Newark
(30.1000°N, 109.4667°E)
Time: 12:21:30
(UTC+00:00)

SR - Pass Details

Date: 24 February 2020
Orbit: 578 x 878 km, 66.7° (Epoch: 05 April)

Event Time Altitude Azimuth Distance (km) Brightness Sun altitude
Rises 18:18:08 0° 308° (NW) 3,113 - -61.7°
Reaches altitude 10° 18:22:23 10° 274° (W) 2,102 - -61.0°
Maximum altitude 18:23:39 11° 258° (WSW) 2,008 - -60.8°
Drops below altitude 10° 18:24:55 10° 242° (WSW) 2,050 - -60.6°
Sets 18:28:53 0° 206° (SSW) 2,882 - -60.0°
